COSMOS 1691 DEB, 43314

Orbit data source: Space-Track

COSMOS 1691 DEB, 43314 is space debris in LEO originally from a launch on Wed, 09 Oct 1985 UTC launched from the Plesetsk Missile And Space Complex (PKMTR). Debris objects in space refer to the collection of defunct objects orbiting the Earth. Examples of debris include non-operational satellites, rocket bodies, and fragments generated from explosions, collisions, or faulty payload assembly.

Loading next visibility...
Identifier
43314, 1985-094Y
Orbit
LEO
Country
Flag of CISCIS
Related business
Manufacturer
Unknown
Mission
Spacecraft
Bus & Motor
Unknown
Mass
Unknown
Launch date (UTC)
1985-10-09 (40 years ago)
Launch vehicle
Unknown
Launch site
Plesetsk Missile And Space Complex (PKMTR)
Object type
Payload
Rocket body
Debris
Shape & HBR
Unknown shape, 0.1 m
Radar Cross Section
Small (<0.1 m²)

Expand to show TLE details & history
Last TLE update: 3 days ago

TLE from 3 days ago
0 COSMOS 1691 DEB
1 43314U 85094Y   25339.24932555  .00000726  00000-0  31842-2 0  9993
2 43314  82.5553 162.4001 0044413 321.4026  38.3902 12.78866680561024
Epoch: 2025-12-05T05:59Z
TLE epoch observation values (Epoch: 2025-12-05T05:59:01.727Z)
Latitude
-0.00002°
Longitude
-1.65122°
Altitude
1,321.949 km
Speed
7.209 km/s
True Right ascension
10h 49m 36s
True Declination
0° 00' 00"
Sunlit
Object was in daylight at epoch
Visualization orbit readout
Latitude
Unknown
Longitude
Unknown
Altitude
Unknown
Speed
Unknown
Apparent Right ascension
Unknown
Apparent Declination
Unknown
Sunlit
N/A
Visualization observer readout
Local Sidereal Time
16:23:04
Azimuth
Unknown
Elevation
Unknown
Doppler factor
Unknown
Orbital elements
Apogee altitude
1,377.621 km
Perigee altitude
1,309.035 km
Semi-major axis
7,721.465 km
Eccentricity
0.00444
Inclination
82.5553°
RAAN
162.4001°
Arg. of periapsis
321.4026°
True anomaly
38.70764°
Mean anomaly
38.3902°
Eccentric anomaly
38.54878°
Mean motion
3.19885 °/min
Orbital period
112.54 mins
BSTAR
0.0031842
Loading maneuver chart data...
Computing Atmospheric mass density...
Loading historical data...
Loading historical data...
Loading historical data...
Loading historical data...
Loading historical data...
Loading historical data...
Loading historical data...

Documentation

Showing up to 5 results
|